When you browse on this site, cookies collect data to enhance your experience and personalize the content and advertising you see.
Visit our Privacy Policy to learn more. By continuing to use the site, you agree to this use of cookies and data.
EN

Hourly Weather Kamien

Today, 4 July, Saturday

Time Temperature Precipitation Wind Pressure Humidity
00:00 +16°C° 0 mm 1 mps 738 mmHg 90%
01:00 +15°C° 0 mm 1 mps 738 mmHg 90%
02:00 +15°C° 0 mm 1 mps 738 mmHg 91%
03:00 +15°C° 0 mm 1 mps 738 mmHg 91%
04:00 +14°C° 0 mm 1 mps 738 mmHg 91%
05:00 +16°C° 0 mm 1 mps 738 mmHg 87%
06:00 +18°C° 0 mm 1 mps 738 mmHg 83%
07:00 +20°C° 0 mm 1 mps 738 mmHg 78%
08:00 +21°C° 0 mm 1 mps 739 mmHg 71%
09:00 +23°C° 0 mm 1 mps 739 mmHg 63%
10:00 +24°C° 0 mm 1 mps 739 mmHg 56%
11:00 +25°C° 0 mm 1 mps 739 mmHg 53%
12:00 +25°C° 0 mm 1 mps 738 mmHg 51%
13:00 +26°C° 0 mm 1 mps 738 mmHg 49%
14:00 +26°C° 0 mm 1 mps 738 mmHg 49%
15:00 +26°C° 0 mm 1 mps 737 mmHg 50%
16:00 +26°C° 0 mm 1 mps 737 mmHg 51%
17:00 +24°C° 0 mm 1 mps 737 mmHg 56%
18:00 +23°C° 0 mm 1 mps 737 mmHg 62%
19:00 +22°C° 0 mm 1 mps 737 mmHg 68%
20:00 +21°C° 0 mm 1 mps 737 mmHg 71%
21:00 +19°C° 0 mm 1 mps 737 mmHg 73%
22:00 +18°C° 0 mm 1 mps 737 mmHg 75%
23:00 +18°C° 0 mm 1 mps 737 mmHg 76%

Tomorrow, 5 July, Sunday

Time Temperature Precipitation Wind Pressure Humidity
00:00 +16°C° 0 mm 1 mps 737 mmHg 77%
01:00 +16°C° 0 mm 1 mps 737 mmHg 78%
02:00 +16°C° 0 mm 1 mps 737 mmHg 79%
03:00 +15°C° 0 mm 1 mps 737 mmHg 79%
04:00 +15°C° 0 mm 1 mps 737 mmHg 80%
05:00 +18°C° 0 mm 1 mps 737 mmHg 76%
06:00 +20°C° 0 mm 1 mps 737 mmHg 72%
07:00 +21°C° 0 mm 2 mps 737 mmHg 69%
08:00 +23°C° 0 mm 2 mps 737 mmHg 64%
09:00 +25°C° 0 mm 2 mps 737 mmHg 60%
10:00 +26°C° 0 mm 2 mps 737 mmHg 55%
11:00 +27°C° 0 mm 2 mps 737 mmHg 54%
12:00 +27°C° 0 mm 3 mps 737 mmHg 52%
13:00 +28°C° 0 mm 3 mps 736 mmHg 50%
14:00 +28°C° 0 mm 3 mps 736 mmHg 53%
15:00 +28°C° 0 mm 3 mps 736 mmHg 55%
16:00 +28°C° 0 mm 3 mps 735 mmHg 57%
17:00 +27°C° 0 mm 3 mps 735 mmHg 64%
18:00 +26°C° 0 mm 3 mps 735 mmHg 71%
19:00 +24°C° 0 mm 2 mps 735 mmHg 77%
20:00 +23°C° 0 mm 2 mps 735 mmHg 80%
21:00 +21°C° 0 mm 2 mps 735 mmHg 82%
22:00 +20°C° 0 mm 2 mps 735 mmHg 84%
23:00 +20°C° 0 mm 2 mps 735 mmHg 85%

Day after tomorrow, 6 July, Monday

Time Temperature Precipitation Wind Pressure Humidity
00:00 +19°C° 0 mm 2 mps 735 mmHg 86%
01:00 +19°C° 0 mm 2 mps 734 mmHg 86%
02:00 +19°C° 0 mm 2 mps 734 mmHg 87%
03:00 +18°C° 0 mm 2 mps 734 mmHg 88%
04:00 +18°C° 0 mm 2 mps 734 mmHg 89%
05:00 +20°C° 0 mm 2 mps 734 mmHg 84%
06:00 +21°C° 0 mm 3 mps 734 mmHg 78%
07:00 +24°C° 0 mm 3 mps 734 mmHg 72%
08:00 +25°C° 0 mm 4 mps 734 mmHg 69%
09:00 +26°C° 0 mm 4 mps 734 mmHg 65%
10:00 +26°C° 0 mm 5 mps 733 mmHg 61%
11:00 +27°C° 0 mm 5 mps 733 mmHg 59%
12:00 +28°C° 0 mm 5 mps 733 mmHg 56%
13:00 +28°C° 0 mm 6 mps 732 mmHg 54%
14:00 +27°C° 0.1 mm 6 mps 732 mmHg 59%
15:00 +26°C° 0.1 mm 5 mps 732 mmHg 65%
16:00 +25°C° 0.1 mm 5 mps 732 mmHg 71%
17:00 +22°C° 0 mm 4 mps 732 mmHg 74%
18:00 +21°C° 0 mm 2 mps 733 mmHg 77%
19:00 +21°C° 0 mm 1 mps 733 mmHg 80%
20:00 +20°C° 0 mm 1 mps 733 mmHg 79%
21:00 +20°C° 0 mm 1 mps 734 mmHg 78%
22:00 +19°C° 0 mm 1 mps 734 mmHg 77%
23:00 +17°C° 0.1 mm 2 mps 735 mmHg 77%

7 July, Tuesday

Time Temperature Precipitation Wind Pressure Humidity
00:00 +17°C° 0.1 mm 2 mps 735 mmHg 77%
01:00 +16°C° 0.1 mm 3 mps 735 mmHg 77%
02:00 +14°C° 0.6 mm 3 mps 736 mmHg 82%
03:00 +13°C° 0.6 mm 3 mps 736 mmHg 87%
04:00 +13°C° 0.6 mm 2 mps 736 mmHg 92%
05:00 +13°C° 0.2 mm 3 mps 736 mmHg 89%
06:00 +13°C° 0.2 mm 3 mps 737 mmHg 86%
07:00 +13°C° 0.2 mm 3 mps 737 mmHg 84%
08:00 +16°C° 0.1 mm 3 mps 737 mmHg 76%
09:00 +17°C° 0.1 mm 3 mps 737 mmHg 69%
10:00 +18°C° 0.1 mm 3 mps 737 mmHg 62%
11:00 +18°C° 0.1 mm 3 mps 737 mmHg 59%
12:00 +19°C° 0.1 mm 3 mps 737 mmHg 57%
13:00 +19°C° 0.1 mm 3 mps 737 mmHg 54%
14:00 +19°C° 0 mm 3 mps 737 mmHg 54%
15:00 +20°C° 0 mm 3 mps 737 mmHg 54%
16:00 +20°C° 0 mm 2 mps 737 mmHg 54%
17:00 +19°C° 0.1 mm 2 mps 737 mmHg 60%
18:00 +18°C° 0.1 mm 2 mps 737 mmHg 66%
19:00 +18°C° 0.1 mm 1 mps 737 mmHg 72%
20:00 +15°C° 0 mm 1 mps 738 mmHg 76%
21:00 +14°C° 0 mm 1 mps 738 mmHg 79%
22:00 +13°C° 0 mm 1 mps 738 mmHg 82%
23:00 +13°C° 0 mm 1 mps 738 mmHg 83%

8 July, Wednesday

Time Temperature Precipitation Wind Pressure Humidity
00:00 +12°C° 0 mm 1 mps 738 mmHg 83%
01:00 +12°C° 0 mm 1 mps 738 mmHg 84%
02:00 +12°C° 0 mm 1 mps 738 mmHg 85%
03:00 +12°C° 0 mm 1 mps 738 mmHg 87%
04:00 +11°C° 0 mm 1 mps 738 mmHg 88%
05:00 +13°C° 0 mm 1 mps 739 mmHg 83%
06:00 +15°C° 0 mm 2 mps 739 mmHg 78%
07:00 +17°C° 0 mm 2 mps 739 mmHg 72%
08:00 +18°C° 0.1 mm 2 mps 739 mmHg 67%
09:00 +19°C° 0.1 mm 3 mps 739 mmHg 61%
10:00 +20°C° 0.1 mm 3 mps 739 mmHg 55%
11:00 +21°C° 0 mm 3 mps 739 mmHg 54%
12:00 +21°C° 0 mm 3 mps 739 mmHg 52%
13:00 +21°C° 0 mm 3 mps 739 mmHg 51%
14:00 +21°C° 0 mm 3 mps 739 mmHg 51%
15:00 +21°C° 0 mm 3 mps 739 mmHg 52%
16:00 +21°C° 0 mm 3 mps 739 mmHg 52%
17:00 +20°C° 0 mm 2 mps 739 mmHg 59%
18:00 +20°C° 0 mm 1 mps 739 mmHg 65%
19:00 +19°C° 0 mm 1 mps 739 mmHg 71%
20:00 +18°C° 0 mm 1 mps 739 mmHg 73%
21:00 +16°C° 0 mm 1 mps 739 mmHg 76%
22:00 +15°C° 0 mm 1 mps 740 mmHg 78%
23:00 +14°C° 0 mm 1 mps 740 mmHg 79%

9 July, Thursday

Time Temperature Precipitation Wind Pressure Humidity
00:00 +14°C° 0 mm 1 mps 740 mmHg 80%
01:00 +13°C° 0 mm 1 mps 740 mmHg 81%
02:00 +13°C° 0 mm 1 mps 739 mmHg 81%
03:00 +13°C° 0 mm 1 mps 739 mmHg 82%
04:00 +12°C° 0 mm 1 mps 739 mmHg 82%
05:00 +14°C° 0 mm 1 mps 739 mmHg 76%
06:00 +16°C° 0 mm 1 mps 739 mmHg 71%
07:00 +19°C° 0 mm 1 mps 739 mmHg 65%
08:00 +21°C° 0 mm 1 mps 739 mmHg 60%
09:00 +21°C° 0 mm 2 mps 739 mmHg 55%
10:00 +24°C° 0 mm 2 mps 739 mmHg 50%
11:00 +25°C° 0 mm 2 mps 738 mmHg 49%
12:00 +25°C° 0 mm 3 mps 738 mmHg 48%
13:00 +26°C° 0 mm 3 mps 738 mmHg 48%
14:00 +26°C° 0 mm 3 mps 738 mmHg 50%
15:00 +26°C° 0 mm 3 mps 737 mmHg 52%
16:00 +26°C° 0 mm 3 mps 737 mmHg 54%
17:00 +25°C° 0 mm 3 mps 737 mmHg 60%
18:00 +24°C° 0 mm 3 mps 737 mmHg 66%
19:00 +21°C° 0 mm 2 mps 737 mmHg 72%
20:00 +20°C° 0 mm 2 mps 737 mmHg 74%
21:00 +19°C° 0 mm 2 mps 737 mmHg 77%
22:00 +18°C° 0 mm 2 mps 737 mmHg 79%
23:00 +17°C° 0 mm 2 mps 737 mmHg 81%
Show more